Regional Weather Roundup
Issued by NWS

Home | Current Version | Previous Version | Graphics & Text | Print | Product List | Glossary On
Versions: 1 2 3 4 5 6 7 8 9 10 11 12 13 14 15 16 17 18 19 20 21 22 23 24 25 26 27 28 29 30 31 32 33 34 35 36 37 38 39 40 41 42 43 44 45 46 47 48 49 50
234
ASUS43 KBIS 212010
RWRND

NORTH DAKOTA REGIONAL WEATHER ROUNDUP
NATIONAL WEATHER SERVICE BISMARCK ND
300 PM CDT SAT APR 21 2018

NOTE: "FAIR" INDICATES FEW OR NO CLOUDS BELOW 12,000 FEET WITH NO
SIGNIFICANT WEATHER AND/OR OBSTRUCTIONS TO VISIBILITY.


NDZ001>003-009>011-017-212100-
NORTHWEST NORTH DAKOTA

CITY           SKY/WX    TMP DP  RH WIND       PRES   REMARKS
WILLISTON      SUNNY     66  39  37 S18G26    30.01F
MINOT          SUNNY     64  38  38 S25G35    30.11F
MINOT AFB      SUNNY     63  41  45 S23G33    30.09F
$$

NDZ018>021-031>035-040>046-212100-
SOUTHWEST NORTH DAKOTA

CITY           SKY/WX    TMP DP  RH WIND       PRES   REMARKS
BISMARCK       SUNNY     62  35  36 S23G35    30.19F
DICKINSON      SUNNY     63  36  36 S25G35    30.07F
GARRISON         N/A     58  39  49 S20       30.12F
HETTINGER ARPT MOSUNNY   58  35  42 S25G32    30.14F
$$

NDZ004>008-012>016-024-026-027-054-212100-
NORTHEAST NORTH DAKOTA

CITY           SKY/WX    TMP DP  RH WIND       PRES   REMARKS
GRAND FORKS    FAIR      57  44  62 S17G23    30.27F
GRND FRKS AFB  FAIR      59  43  56 S16       30.27F
DEVILS LAKE    FAIR      59  40  49 S17       30.23S
$$

NDZ022-023-025-028>030-036>039-047>053-212100-
SOUTHEAST NORTH DAKOTA

CITY           SKY/WX    TMP DP  RH WIND       PRES   REMARKS
FARGO          FAIR      60  39  45 S6G20     30.29F
JAMESTOWN      MOSUNNY   61  41  47 S16G29    30.25S
$$





USA.gov is the U.S. government's official web portal to all federal, state and local government web resources and services.